星链-4355 (STARLINK-4355 )

导读

STARLINK-4355是美国太空探索技术公司星链星座中的卫星,于2022年7月11日发射入轨,属于星链项目的组网卫星。它采用低轨设计,主要为全球用户提供高速互联网接入服务,尤其覆盖偏远地区,助力星链完成全球卫星互联网组网布局。

基本信息
目录编号:
53048
目录名称:
STARLINK-4355
国际标识:
2022-077F
轨道中心:
EARTH
卫星名称:
星链-4355
卫星全名:
星链-4355 (STARLINK-4355 )
卫星状态:
在轨 (已飞行1437 天)
发射日期:
2022-07-11 UTC
国别 :
美国 (US)
星等 :
--
轨道信息
数据来源 国际轨道数据 AOE轨道数据
星历时间 2026-06-17T09:45:20+0800
8小时前
查看轨道信息
2026-06-13T18:00:00+0800
4天前
查看轨道信息
半长轴 6927.657km 6927.609km
偏心率 0.0000271 0.0001933
轨道倾角 97.352° 97.371°
近地点辐角 260.832° 100.947°
升交点赤经 348.211° 344.723°
平近点角 99.287° 252.363°
近地点 549.332km 548.132km
远地点 549.708km 550.812km
周期 95.640分钟 95.639分钟
每日圈数 15.056474 15.056629
详细信息
固有亮度:
5
最大亮度:
2.5
卫星平台:
Starlink v1.5
覆盖范围:
全球
运营商:
太空探索技术公司
运营商所在国:
美国
制造商(研发单位):
太空探索技术公司
制造商所在国:
美国
使用方式:
暂无
卫星简介
星链(Starlink)计划是由太空探索技术公司(SpaceX)提出的一个巨型低轨卫星互联网星座项目,计划在2019年至2024年间在太空搭建由约1.2万颗卫星组成的“星链”网络,其中1584颗将部署在地球上空550千米处的近地轨道,并从2020年开始工作。该卫星仍在工作。
2D轨道图
3D轨道图
轨道高度分析图
轨道倾角分析图
轨道综合分析图
查看轨道综合分析图